LAN69 SEQM-SLLP

Flight info

Callsign LAN69
Flight time 2h 36m
Altitude 37000
Route VURIS3 VURIS UP408 JUL UM657 ELAKO
Aircraft B77W/H-SDE1E2E3FGHIJ2J3J4J5M1RWXY/LB1D1

Departure

Time 2026-04-22 17:53
Airport Mariscal Sucre International Airport (SEQM)

Arrival

Time 2026-04-22 20:29
Airport El Alto International Airport (SLLP)
Time Latitude Longitude Altitude Speed Heading
2026-04-22 17:32 -0.12376 -78.35922 7890 ft 0 kts 267°
2026-04-22 17:44 -0.12375 -78.35926 7888 ft 1 kts 287°
2026-04-22 17:44 -0.12356 -78.35930 7887 ft 3 kts 39°
2026-04-22 17:44 -0.12353 -78.35896 7889 ft 2 kts 96°
2026-04-22 17:45 -0.12354 -78.35892 7890 ft 0 kts 96°
2026-04-22 17:46 -0.12360 -78.35874 7891 ft 6 kts 118°
2026-04-22 17:46 -0.12421 -78.35844 7897 ft 13 kts 173°
2026-04-22 17:46 -0.12528 -78.35835 7904 ft 14 kts 178°
2026-04-22 17:47 -0.12619 -78.35833 7908 ft 12 kts 179°
2026-04-22 17:47 -0.12690 -78.35803 7913 ft 10 kts 113°
2026-04-22 17:47 -0.12695 -78.35737 7919 ft 8 kts 88°
2026-04-22 17:47 -0.12696 -78.35665 7924 ft 11 kts 87°
2026-04-22 17:48 -0.12709 -78.35619 7928 ft 11 kts 134°
2026-04-22 17:48 -0.12843 -78.35596 7938 ft 18 kts 176°
2026-04-22 17:48 -0.12993 -78.35589 7947 ft 21 kts 178°
2026-04-22 17:48 -0.13146 -78.35583 7954 ft 22 kts 177°
2026-04-22 17:49 -0.13306 -78.35576 7962 ft 25 kts 176°
2026-04-22 17:49 -0.13481 -78.35568 7969 ft 23 kts 178°
2026-04-22 17:49 -0.13639 -78.35563 7975 ft 21 kts 177°
2026-04-22 17:49 -0.13782 -78.35557 7984 ft 19 kts 177°
2026-04-22 17:50 -0.13913 -78.35551 7990 ft 18 kts 177°
2026-04-22 17:50 -0.14036 -78.35546 7996 ft 16 kts 178°
2026-04-22 17:50 -0.14138 -78.35542 8000 ft 9 kts 178°
2026-04-22 17:50 -0.14195 -78.35538 8001 ft 7 kts 169°
2026-04-22 17:51 -0.14218 -78.35529 8003 ft 2 kts 148°
2026-04-22 17:51 -0.14243 -78.35502 8008 ft 8 kts 118°
2026-04-22 17:51 -0.14253 -78.35432 8015 ft 10 kts 90°
2026-04-22 17:51 -0.14242 -78.35387 8019 ft 7 kts 56°
2026-04-22 17:52 -0.14166 -78.35367 8019 ft 18 kts 359°
2026-04-22 17:52 -0.13849 -78.35380 8005 ft 78 kts 357°
2026-04-22 17:52 -0.13082 -78.35413 7964 ft 142 kts 358°
2026-04-22 17:52 -0.11882 -78.35464 8030 ft 187 kts 357°
2026-04-22 17:53 -0.10555 -78.35519 8579 ft 198 kts 357°
2026-04-22 17:53 -0.09146 -78.35595 9209 ft 213 kts 357°
2026-04-22 17:53 -0.07648 -78.35652 9917 ft 219 kts 357°
2026-04-22 17:53 -0.06034 -78.35730 10138 ft 242 kts 356°
2026-04-22 17:54 -0.04309 -78.35835 10670 ft 253 kts 355°
2026-04-22 17:54 -0.02539 -78.35948 11293 ft 259 kts 356°
2026-04-22 17:54 -0.00704 -78.36014 11792 ft 273 kts 358°
2026-04-22 17:54 0.01227 -78.36053 12506 ft 277 kts 358°
2026-04-22 17:55 0.02502 -78.36075 13047 ft 278 kts 358°
2026-04-22 17:55 0.05011 -78.36596 14005 ft 280 kts 328°
2026-04-22 17:55 0.06461 -78.37872 14671 ft 284 kts 302°
2026-04-22 17:55 0.07192 -78.39718 15400 ft 286 kts 275°
2026-04-22 17:56 0.07005 -78.41650 16137 ft 289 kts 249°
2026-04-22 17:56 0.05934 -78.43340 16889 ft 291 kts 223°
2026-04-22 17:56 0.04212 -78.44409 17586 ft 296 kts 198°
2026-04-22 17:56 0.02099 -78.44644 18266 ft 301 kts 173°
2026-04-22 17:57 0.00080 -78.43963 18897 ft 308 kts 149°
2026-04-22 17:57 -0.01713 -78.42796 19630 ft 309 kts 146°
2026-04-22 17:57 -0.03516 -78.41552 20315 ft 313 kts 145°
2026-04-22 17:57 -0.05373 -78.40265 21008 ft 316 kts 144°
2026-04-22 17:58 -0.07234 -78.38973 21703 ft 319 kts 144°
2026-04-22 17:58 -0.09052 -78.37711 22337 ft 322 kts 144°
2026-04-22 17:58 -0.10898 -78.36430 23009 ft 324 kts 144°
2026-04-22 17:58 -0.12662 -78.35066 23603 ft 326 kts 134°
2026-04-22 17:59 -0.14235 -78.33378 23983 ft 338 kts 130°
2026-04-22 17:59 -0.15808 -78.31553 24231 ft 355 kts 129°
2026-04-22 17:59 -0.17467 -78.29627 24437 ft 373 kts 130°
2026-04-22 17:59 -0.19189 -78.27639 24694 ft 390 kts 130°
2026-04-22 18:00 -0.20395 -78.26249 24863 ft 401 kts 130°
2026-04-22 18:00 -0.22917 -78.23346 25193 ft 424 kts 130°
2026-04-22 18:00 -0.24893 -78.21071 25417 ft 441 kts 130°
2026-04-22 18:00 -0.26931 -78.18726 25618 ft 458 kts 130°
2026-04-22 18:01 -0.29073 -78.16262 25889 ft 473 kts 130°
2026-04-22 18:01 -0.31294 -78.13865 26499 ft 479 kts 136°
2026-04-22 18:01 -0.33903 -78.11751 27330 ft 480 kts 144°
2026-04-22 18:01 -0.36771 -78.10059 28037 ft 484 kts 152°
2026-04-22 18:02 -0.39895 -78.08785 28556 ft 492 kts 161°
2026-04-22 18:02 -0.43294 -78.07974 29089 ft 500 kts 170°
2026-04-22 18:02 -0.46780 -78.07713 29757 ft 505 kts 179°
2026-04-22 18:02 -0.50265 -78.07988 30525 ft 507 kts 186°
2026-04-22 18:03 -0.53767 -78.08498 31462 ft 503 kts 186°
2026-04-22 18:03 -0.57211 -78.09016 32429 ft 498 kts 186°
2026-04-22 18:03 -0.60625 -78.09527 33416 ft 493 kts 185°
2026-04-22 18:03 -0.63994 -78.10027 34251 ft 490 kts 185°
2026-04-22 18:04 -0.67350 -78.10522 34930 ft 490 kts 185°
2026-04-22 18:04 -0.70907 -78.11044 35657 ft 489 kts 185°
2026-04-22 18:04 -0.74596 -78.11584 36444 ft 486 kts 184°
2026-04-22 18:04 -0.78199 -78.12110 37162 ft 484 kts 184°
2026-04-22 18:05 -0.81542 -78.12597 37474 ft 487 kts 184°
2026-04-22 18:05 -0.88271 -78.13575 37440 ft 485 kts 184°
2026-04-22 18:06 -0.94940 -78.14544 37403 ft 486 kts 184°
2026-04-22 18:06 -1.01641 -78.15517 37406 ft 487 kts 184°
2026-04-22 18:07 -1.07243 -78.16316 37370 ft 485 kts 181°
2026-04-22 18:07 -1.11722 -78.16368 37378 ft 480 kts 170°
2026-04-22 18:07 -1.15036 -78.15821 37353 ft 477 kts 161°
2026-04-22 18:08 -1.21347 -78.13911 37298 ft 472 kts 158°
2026-04-22 18:08 -1.27617 -78.11927 37253 ft 471 kts 158°
2026-04-22 18:09 -1.33889 -78.09941 37231 ft 472 kts 158°
2026-04-22 18:09 -1.40187 -78.07948 37211 ft 472 kts 159°
2026-04-22 18:10 -1.46510 -78.05946 37189 ft 474 kts 158°
2026-04-22 18:10 -1.52885 -78.03725 37164 ft 470 kts 152°
2026-04-22 18:11 -1.58806 -78.00946 37144 ft 470 kts 151°
2026-04-22 18:11 -1.64726 -77.98148 37116 ft 468 kts 151°
2026-04-22 18:12 -1.70608 -77.95369 37104 ft 468 kts 151°
2026-04-22 18:12 -1.75513 -77.93052 37071 ft 469 kts 151°
2026-04-22 18:13 -1.82405 -77.89798 37057 ft 468 kts 151°
2026-04-22 18:13 -1.88322 -77.87005 37044 ft 470 kts 151°
2026-04-22 18:14 -1.94226 -77.84217 37055 ft 470 kts 151°
2026-04-22 18:14 -2.00152 -77.81420 37039 ft 470 kts 151°
2026-04-22 18:15 -2.06065 -77.78628 37025 ft 470 kts 151°
2026-04-22 18:15 -2.12014 -77.75819 37010 ft 470 kts 151°
2026-04-22 18:16 -2.17898 -77.73041 37001 ft 471 kts 151°
2026-04-22 18:16 -2.23851 -77.70229 36996 ft 471 kts 150°
2026-04-22 18:17 -2.29807 -77.67416 36983 ft 473 kts 151°
2026-04-22 18:17 -2.35745 -77.64612 36969 ft 472 kts 150°
2026-04-22 18:18 -2.41662 -77.61816 36963 ft 471 kts 151°
2026-04-22 18:18 -2.47614 -77.59005 36947 ft 472 kts 151°
2026-04-22 18:19 -2.53544 -77.56203 36941 ft 472 kts 150°
2026-04-22 18:19 -2.59509 -77.53384 36935 ft 472 kts 151°
2026-04-22 18:20 -2.65493 -77.50556 36926 ft 473 kts 151°
2026-04-22 18:20 -2.71475 -77.47729 36923 ft 474 kts 150°
2026-04-22 18:21 -2.77436 -77.44912 36919 ft 473 kts 150°
2026-04-22 18:21 -2.83401 -77.42092 36917 ft 473 kts 151°
2026-04-22 18:22 -2.89350 -77.39281 36911 ft 474 kts 151°
2026-04-22 18:22 -2.95323 -77.36461 36912 ft 474 kts 151°
2026-04-22 18:23 -3.01317 -77.33630 36919 ft 475 kts 151°
2026-04-22 18:23 -3.07290 -77.30809 36916 ft 475 kts 151°
2026-04-22 18:24 -3.16297 -77.26555 36913 ft 475 kts 150°
2026-04-22 18:25 -3.25262 -77.22319 36909 ft 475 kts 151°
2026-04-22 18:25 -3.31262 -77.19484 36902 ft 475 kts 150°
2026-04-22 18:26 -3.40207 -77.15256 36890 ft 475 kts 150°
2026-04-22 18:26 -3.46197 -77.12424 36889 ft 475 kts 150°
2026-04-22 18:27 -3.52189 -77.09591 36885 ft 476 kts 151°
2026-04-22 18:27 -3.58176 -77.06760 36877 ft 474 kts 150°
2026-04-22 18:28 -3.64152 -77.03934 36875 ft 475 kts 150°
2026-04-22 18:28 -3.70166 -77.01090 36874 ft 476 kts 150°
2026-04-22 18:29 -3.76170 -76.98249 36867 ft 476 kts 150°
2026-04-22 18:29 -3.82183 -76.95404 36869 ft 477 kts 150°
2026-04-22 18:30 -3.91169 -76.91152 36876 ft 474 kts 150°
2026-04-22 18:31 -3.97122 -76.88335 36880 ft 475 kts 150°
2026-04-22 18:31 -4.03116 -76.85497 36880 ft 476 kts 150°
2026-04-22 18:32 -4.09120 -76.82654 36877 ft 477 kts 150°
2026-04-22 18:32 -4.15138 -76.79804 36873 ft 477 kts 150°
2026-04-22 18:33 -4.21138 -76.76962 36875 ft 477 kts 150°
2026-04-22 18:33 -4.27126 -76.74126 36875 ft 476 kts 151°
2026-04-22 18:34 -4.33130 -76.71281 36872 ft 477 kts 151°
2026-04-22 18:34 -4.39149 -76.68429 36877 ft 477 kts 151°
2026-04-22 18:35 -4.45193 -76.65564 36876 ft 478 kts 151°
2026-04-22 18:35 -4.51211 -76.62711 36871 ft 480 kts 151°
2026-04-22 18:36 -4.57259 -76.59843 36864 ft 479 kts 151°
2026-04-22 18:36 -4.63293 -76.56982 36860 ft 479 kts 151°
2026-04-22 18:37 -4.69317 -76.54125 36861 ft 479 kts 151°
2026-04-22 18:37 -4.74347 -76.51739 36858 ft 480 kts 151°
2026-04-22 18:38 -4.81375 -76.48404 36852 ft 480 kts 151°
2026-04-22 18:38 -4.87452 -76.45520 36856 ft 480 kts 151°
2026-04-22 18:39 -4.96505 -76.41222 36850 ft 480 kts 151°
2026-04-22 18:39 -5.02536 -76.38358 36853 ft 481 kts 151°
2026-04-22 18:40 -5.08612 -76.35473 36859 ft 481 kts 151°
2026-04-22 18:40 -5.14637 -76.32610 36873 ft 480 kts 151°
2026-04-22 18:41 -5.20711 -76.29725 36877 ft 480 kts 151°
2026-04-22 18:41 -5.26739 -76.26860 36878 ft 480 kts 151°
2026-04-22 18:42 -5.32783 -76.23987 36880 ft 481 kts 151°
2026-04-22 18:42 -5.38730 -76.20949 36879 ft 480 kts 148°
2026-04-22 18:43 -5.44623 -76.17703 36877 ft 479 kts 148°
2026-04-22 18:43 -5.50476 -76.14496 36876 ft 479 kts 148°
2026-04-22 18:44 -5.56333 -76.11297 36877 ft 478 kts 148°
2026-04-22 18:44 -5.62162 -76.08118 36878 ft 479 kts 148°
2026-04-22 18:45 -5.68024 -76.04923 36880 ft 479 kts 148°
2026-04-22 18:45 -5.73919 -76.01711 36880 ft 479 kts 148°
2026-04-22 18:46 -5.79766 -75.98526 36881 ft 479 kts 148°
2026-04-22 18:46 -5.85631 -75.95330 36877 ft 479 kts 148°
2026-04-22 18:47 -5.91501 -75.92132 36876 ft 478 kts 148°
2026-04-22 18:47 -5.97363 -75.88937 36871 ft 478 kts 148°
2026-04-22 18:48 -6.03216 -75.85745 36871 ft 478 kts 148°
2026-04-22 18:48 -6.09051 -75.82563 36864 ft 479 kts 148°
2026-04-22 18:49 -6.14962 -75.79339 36864 ft 481 kts 148°
2026-04-22 18:49 -6.20805 -75.76151 36862 ft 479 kts 148°
2026-04-22 18:50 -6.26677 -75.72947 36857 ft 479 kts 148°
2026-04-22 18:50 -6.32543 -75.69745 36859 ft 479 kts 148°
2026-04-22 18:51 -6.38424 -75.66533 36867 ft 480 kts 148°
2026-04-22 18:51 -6.44278 -75.63336 36870 ft 480 kts 148°
2026-04-22 18:52 -6.50176 -75.60114 36872 ft 480 kts 148°
2026-04-22 18:52 -6.56060 -75.56899 36888 ft 480 kts 148°
2026-04-22 18:53 -6.61915 -75.53699 36885 ft 480 kts 148°
2026-04-22 18:53 -6.67792 -75.50486 36885 ft 479 kts 148°
2026-04-22 18:54 -6.73646 -75.47284 36888 ft 480 kts 148°
2026-04-22 18:54 -6.79552 -75.44054 36888 ft 481 kts 148°
2026-04-22 18:55 -6.85428 -75.40838 36885 ft 481 kts 148°
2026-04-22 18:55 -6.91334 -75.37605 36878 ft 480 kts 148°
2026-04-22 18:56 -6.97194 -75.34397 36878 ft 480 kts 148°
2026-04-22 18:56 -7.03098 -75.31164 36881 ft 480 kts 148°
2026-04-22 18:57 -7.08987 -75.27938 36877 ft 480 kts 148°
2026-04-22 18:57 -7.14867 -75.24715 36869 ft 482 kts 148°
2026-04-22 18:58 -7.20771 -75.21479 36864 ft 482 kts 148°
2026-04-22 18:58 -7.26639 -75.18262 36866 ft 481 kts 148°
2026-04-22 18:59 -7.32558 -75.15015 36865 ft 482 kts 148°
2026-04-22 18:59 -7.38458 -75.11778 36858 ft 481 kts 148°
2026-04-22 19:00 -7.44330 -75.08556 36860 ft 482 kts 148°
2026-04-22 19:00 -7.50270 -75.05295 36854 ft 482 kts 148°
2026-04-22 19:01 -7.56190 -75.02044 36850 ft 482 kts 148°
2026-04-22 19:01 -7.62104 -74.98795 36858 ft 482 kts 148°
2026-04-22 19:02 -7.67974 -74.95570 36857 ft 482 kts 148°
2026-04-22 19:02 -7.73877 -74.92325 36850 ft 482 kts 148°
2026-04-22 19:03 -7.79792 -74.89072 36852 ft 482 kts 148°
2026-04-22 19:03 -7.85742 -74.85800 36846 ft 483 kts 148°
2026-04-22 19:04 -7.91640 -74.82555 36846 ft 483 kts 148°
2026-04-22 19:04 -7.97558 -74.79298 36843 ft 484 kts 148°
2026-04-22 19:05 -8.03446 -74.76055 36843 ft 484 kts 148°
2026-04-22 19:05 -8.09374 -74.72791 36847 ft 482 kts 148°
2026-04-22 19:06 -8.15256 -74.69550 36851 ft 483 kts 148°
2026-04-22 19:07 -8.24160 -74.64642 36860 ft 484 kts 148°
2026-04-22 19:07 -8.30094 -74.61370 36859 ft 485 kts 148°
2026-04-22 19:08 -8.36019 -74.58102 36867 ft 486 kts 148°
2026-04-22 19:08 -8.41890 -74.54733 36866 ft 483 kts 146°
2026-04-22 19:09 -8.47726 -74.51246 36866 ft 486 kts 146°
2026-04-22 19:09 -8.52555 -74.48367 36862 ft 484 kts 146°
2026-04-22 19:10 -8.59345 -74.44325 36862 ft 485 kts 146°
2026-04-22 19:10 -8.65201 -74.40840 36861 ft 486 kts 146°
2026-04-22 19:11 -8.71059 -74.37355 36859 ft 486 kts 146°
2026-04-22 19:11 -8.76958 -74.33845 36863 ft 487 kts 146°
2026-04-22 19:12 -8.82809 -74.30363 36869 ft 488 kts 146°
2026-04-22 19:12 -8.88740 -74.26833 36868 ft 486 kts 146°
2026-04-22 19:13 -8.94755 -74.23251 36874 ft 488 kts 146°
2026-04-22 19:13 -9.00605 -74.19766 36877 ft 488 kts 146°
2026-04-22 19:14 -9.06437 -74.16290 36875 ft 488 kts 146°
2026-04-22 19:14 -9.12318 -74.12784 36863 ft 490 kts 146°
2026-04-22 19:15 -9.17208 -74.09869 36860 ft 489 kts 146°
2026-04-22 19:15 -9.24074 -74.05772 36868 ft 491 kts 146°
2026-04-22 19:16 -9.29993 -74.02240 36871 ft 490 kts 146°
2026-04-22 19:16 -9.35876 -73.98727 36870 ft 492 kts 146°
2026-04-22 19:17 -9.41791 -73.95194 36872 ft 491 kts 146°
2026-04-22 19:17 -9.47682 -73.91673 36873 ft 493 kts 146°
2026-04-22 19:18 -9.53572 -73.88152 36874 ft 493 kts 146°
2026-04-22 19:18 -9.59506 -73.84604 36872 ft 493 kts 146°
2026-04-22 19:19 -9.65398 -73.81079 36873 ft 494 kts 146°
2026-04-22 19:19 -9.71319 -73.77535 36878 ft 493 kts 146°
2026-04-22 19:20 -9.77229 -73.73996 36880 ft 494 kts 146°
2026-04-22 19:20 -9.83151 -73.70448 36885 ft 493 kts 146°
2026-04-22 19:21 -9.89094 -73.66886 36886 ft 495 kts 146°
2026-04-22 19:21 -9.95032 -73.63326 36891 ft 495 kts 146°
2026-04-22 19:22 -10.00961 -73.59770 36898 ft 493 kts 146°
2026-04-22 19:22 -10.06885 -73.56215 36910 ft 495 kts 146°
2026-04-22 19:23 -10.12780 -73.52676 36904 ft 494 kts 146°
2026-04-22 19:23 -10.18719 -73.49108 36904 ft 495 kts 146°
2026-04-22 19:24 -10.24648 -73.45546 36907 ft 495 kts 146°
2026-04-22 19:24 -10.30608 -73.41964 36905 ft 494 kts 146°
2026-04-22 19:25 -10.36513 -73.38412 36913 ft 495 kts 146°
2026-04-22 19:25 -10.42464 -73.34832 36915 ft 495 kts 146°
2026-04-22 19:26 -10.48364 -73.31280 36917 ft 495 kts 146°
2026-04-22 19:26 -10.54304 -73.27704 36924 ft 495 kts 146°
2026-04-22 19:27 -10.60237 -73.24129 36912 ft 495 kts 146°
2026-04-22 19:27 -10.66211 -73.20528 36910 ft 496 kts 146°
2026-04-22 19:28 -10.72160 -73.16940 36900 ft 497 kts 147°
2026-04-22 19:28 -10.78065 -73.13378 36893 ft 496 kts 146°
2026-04-22 19:29 -10.84049 -73.09766 36890 ft 497 kts 146°
2026-04-22 19:29 -10.89983 -73.06183 36887 ft 496 kts 146°
2026-04-22 19:30 -10.94912 -73.03205 36885 ft 496 kts 146°
2026-04-22 19:30 -11.01862 -72.99005 36880 ft 497 kts 147°
2026-04-22 19:31 -11.07810 -72.95408 36884 ft 497 kts 147°
2026-04-22 19:31 -11.13776 -72.91798 36874 ft 497 kts 147°
2026-04-22 19:32 -11.19725 -72.88197 36880 ft 499 kts 146°
2026-04-22 19:32 -11.25679 -72.84592 36882 ft 498 kts 146°
2026-04-22 19:33 -11.31665 -72.80965 36889 ft 499 kts 146°
2026-04-22 19:33 -11.37617 -72.77357 36897 ft 499 kts 146°
2026-04-22 19:34 -11.43594 -72.73731 36904 ft 499 kts 147°
2026-04-22 19:34 -11.49550 -72.70117 36902 ft 499 kts 147°
2026-04-22 19:35 -11.55564 -72.66466 36909 ft 500 kts 147°
2026-04-22 19:35 -11.60540 -72.63444 36905 ft 500 kts 147°
2026-04-22 19:36 -11.67527 -72.59198 36912 ft 501 kts 147°
2026-04-22 19:36 -11.73543 -72.55540 36919 ft 502 kts 147°
2026-04-22 19:37 -11.79534 -72.51896 36927 ft 500 kts 147°
2026-04-22 19:37 -11.85487 -72.48273 36933 ft 501 kts 147°
2026-04-22 19:38 -11.91497 -72.44613 36959 ft 500 kts 147°
2026-04-22 19:38 -11.97687 -72.40842 36982 ft 502 kts 147°
2026-04-22 19:39 -12.03742 -72.37151 37056 ft 501 kts 147°
2026-04-22 19:39 -12.09770 -72.33474 37133 ft 502 kts 147°
2026-04-22 19:40 -12.16031 -72.29653 37265 ft 501 kts 147°
2026-04-22 19:40 -12.19039 -72.27817 37391 ft 502 kts 147°
2026-04-22 19:40 -12.22018 -72.25997 37453 ft 503 kts 146°
2026-04-22 19:41 -12.28032 -72.22323 37551 ft 502 kts 147°
2026-04-22 19:41 -12.34057 -72.18640 37460 ft 502 kts 147°
2026-04-22 19:42 -12.40037 -72.14955 37422 ft 502 kts 144°
2026-04-22 19:42 -12.45832 -72.11014 37406 ft 502 kts 143°
2026-04-22 19:43 -12.54564 -72.05056 37434 ft 501 kts 143°
2026-04-22 19:43 -12.60373 -72.01103 37471 ft 504 kts 144°
2026-04-22 19:44 -12.66259 -71.97102 37531 ft 501 kts 144°
2026-04-22 19:44 -12.72118 -71.93121 37468 ft 503 kts 144°
2026-04-22 19:45 -12.77961 -71.89148 37501 ft 505 kts 144°
2026-04-22 19:45 -12.83805 -71.85175 37536 ft 503 kts 144°
2026-04-22 19:46 -12.89603 -71.81230 37599 ft 503 kts 144°
2026-04-22 19:46 -12.95446 -71.77253 37587 ft 501 kts 144°
2026-04-22 19:47 -13.01281 -71.73279 37587 ft 502 kts 144°
2026-04-22 19:47 -13.07081 -71.69327 37600 ft 502 kts 144°
2026-04-22 19:48 -13.12935 -71.65336 37574 ft 504 kts 144°
2026-04-22 19:48 -13.18755 -71.61365 37601 ft 503 kts 144°
2026-04-22 19:49 -13.24610 -71.57369 37627 ft 502 kts 144°
2026-04-22 19:49 -13.30444 -71.53384 37654 ft 503 kts 144°
2026-04-22 19:50 -13.36258 -71.49411 37697 ft 502 kts 143°
2026-04-22 19:50 -13.42098 -71.45418 37711 ft 502 kts 144°
2026-04-22 19:51 -13.47904 -71.41446 37733 ft 503 kts 144°
2026-04-22 19:51 -13.53734 -71.37455 37784 ft 503 kts 144°
2026-04-22 19:52 -13.59663 -71.33577 37833 ft 504 kts 146°
2026-04-22 19:52 -13.65617 -71.29872 37863 ft 502 kts 146°
2026-04-22 19:53 -13.71725 -71.26056 37913 ft 503 kts 146°
2026-04-22 19:53 -13.78036 -71.22102 37984 ft 501 kts 146°
2026-04-22 19:54 -13.84009 -71.18352 37962 ft 503 kts 146°
2026-04-22 19:54 -13.89968 -71.14607 37988 ft 502 kts 146°
2026-04-22 19:55 -13.95949 -71.10844 38033 ft 504 kts 146°
2026-04-22 19:55 -14.01969 -71.07053 38029 ft 504 kts 146°
2026-04-22 19:56 -14.07934 -71.03295 38027 ft 503 kts 146°
2026-04-22 19:56 -14.13900 -70.99534 38020 ft 503 kts 146°
2026-04-22 19:57 -14.19876 -70.95763 38014 ft 503 kts 146°
2026-04-22 19:57 -14.25840 -70.91997 38005 ft 504 kts 146°
2026-04-22 19:58 -14.31839 -70.88207 37998 ft 505 kts 146°
2026-04-22 19:58 -14.37839 -70.84414 37980 ft 507 kts 146°
2026-04-22 20:00 -14.58818 -70.71133 37901 ft 505 kts 146°
2026-04-22 20:01 -14.64843 -70.67313 37883 ft 506 kts 146°
2026-04-22 20:01 -14.70840 -70.63509 37883 ft 506 kts 146°
2026-04-22 20:02 -14.76857 -70.59689 37870 ft 508 kts 146°
2026-04-22 20:02 -14.82889 -70.55858 37855 ft 508 kts 146°
2026-04-22 20:03 -14.88917 -70.52026 37847 ft 508 kts 146°
2026-04-22 20:03 -14.94972 -70.48174 37852 ft 510 kts 146°
2026-04-22 20:04 -15.00998 -70.44339 37849 ft 510 kts 146°
2026-04-22 20:04 -15.07215 -70.40379 37837 ft 508 kts 146°
2026-04-22 20:05 -15.13225 -70.36549 37818 ft 511 kts 146°
2026-04-22 20:05 -15.16264 -70.34610 37553 ft 513 kts 146°
2026-04-22 20:05 -15.19317 -70.32663 37184 ft 512 kts 146°
2026-04-22 20:05 -15.22352 -70.30727 36796 ft 511 kts 146°
2026-04-22 20:06 -15.25383 -70.28792 36410 ft 509 kts 146°
2026-04-22 20:06 -15.28370 -70.26884 36025 ft 506 kts 146°
2026-04-22 20:06 -15.31348 -70.24983 35716 ft 502 kts 146°
2026-04-22 20:06 -15.34332 -70.23076 35418 ft 500 kts 146°
2026-04-22 20:07 -15.37282 -70.21190 35127 ft 498 kts 146°
2026-04-22 20:07 -15.40225 -70.19308 34829 ft 497 kts 146°
2026-04-22 20:07 -15.43151 -70.17350 34525 ft 494 kts 141°
2026-04-22 20:07 -15.45832 -70.14964 34218 ft 490 kts 131°
2026-04-22 20:08 -15.48100 -70.12188 33911 ft 487 kts 122°
2026-04-22 20:08 -15.49892 -70.09240 33642 ft 485 kts 117°
2026-04-22 20:08 -15.51574 -70.06217 33360 ft 481 kts 117°
2026-04-22 20:08 -15.53227 -70.03217 33081 ft 476 kts 116°
2026-04-22 20:09 -15.54861 -70.00238 32793 ft 472 kts 116°
2026-04-22 20:09 -15.56457 -69.97321 32533 ft 470 kts 116°
2026-04-22 20:09 -15.58064 -69.94380 32269 ft 469 kts 116°
2026-04-22 20:09 -15.59661 -69.91452 32013 ft 467 kts 116°
2026-04-22 20:10 -15.61269 -69.88498 31765 ft 466 kts 117°
2026-04-22 20:10 -15.62851 -69.85591 31504 ft 465 kts 117°
2026-04-22 20:10 -15.64430 -69.82687 31241 ft 463 kts 117°
2026-04-22 20:10 -15.66015 -69.79769 30964 ft 461 kts 117°
2026-04-22 20:11 -15.67574 -69.76898 30687 ft 459 kts 117°
2026-04-22 20:11 -15.69128 -69.74035 30407 ft 457 kts 117°
2026-04-22 20:11 -15.70680 -69.71172 30129 ft 456 kts 117°
2026-04-22 20:11 -15.72237 -69.68300 29850 ft 454 kts 117°
2026-04-22 20:12 -15.73768 -69.65475 29571 ft 452 kts 117°
2026-04-22 20:12 -15.75300 -69.62646 29290 ft 450 kts 117°
2026-04-22 20:12 -15.76339 -69.60728 29101 ft 449 kts 117°
2026-04-22 20:12 -15.78359 -69.56994 28738 ft 447 kts 117°
2026-04-22 20:13 -15.79887 -69.54170 28459 ft 445 kts 118°
2026-04-22 20:13 -15.81388 -69.51393 28196 ft 444 kts 118°
2026-04-22 20:13 -15.82899 -69.48598 27929 ft 442 kts 118°
2026-04-22 20:13 -15.84388 -69.45842 27662 ft 441 kts 118°
2026-04-22 20:14 -15.85885 -69.43070 27399 ft 439 kts 118°
2026-04-22 20:14 -15.87384 -69.40294 27133 ft 436 kts 118°
2026-04-22 20:14 -15.88922 -69.37445 26868 ft 433 kts 118°
2026-04-22 20:14 -15.90463 -69.34588 26608 ft 430 kts 118°
2026-04-22 20:15 -15.92015 -69.31710 26340 ft 430 kts 118°
2026-04-22 20:15 -15.93654 -69.29097 26089 ft 429 kts 125°
2026-04-22 20:15 -15.95426 -69.26592 25843 ft 428 kts 125°
2026-04-22 20:15 -15.97186 -69.24122 25595 ft 426 kts 125°
2026-04-22 20:16 -15.98927 -69.21674 25347 ft 425 kts 126°
2026-04-22 20:16 -16.00696 -69.19187 25094 ft 424 kts 126°
2026-04-22 20:16 -16.02435 -69.16739 24846 ft 422 kts 126°
2026-04-22 20:16 -16.04165 -69.14302 24597 ft 421 kts 126°
2026-04-22 20:17 -16.05903 -69.11853 24346 ft 419 kts 126°
2026-04-22 20:17 -16.07624 -69.09427 24096 ft 417 kts 126°
2026-04-22 20:17 -16.09344 -69.07000 23852 ft 416 kts 126°
2026-04-22 20:17 -16.11042 -69.04604 23607 ft 415 kts 126°
2026-04-22 20:18 -16.12748 -69.02195 23374 ft 413 kts 126°
2026-04-22 20:18 -16.14469 -68.99765 23139 ft 413 kts 126°
2026-04-22 20:18 -16.16161 -68.97375 22905 ft 411 kts 126°
2026-04-22 20:18 -16.17844 -68.94995 22674 ft 408 kts 126°
2026-04-22 20:19 -16.19521 -68.92625 22444 ft 408 kts 126°
2026-04-22 20:19 -16.21201 -68.90250 22221 ft 407 kts 126°
2026-04-22 20:19 -16.22867 -68.87892 21999 ft 405 kts 126°
2026-04-22 20:19 -16.24541 -68.85523 21786 ft 404 kts 126°
2026-04-22 20:20 -16.26196 -68.83180 21569 ft 402 kts 126°
2026-04-22 20:20 -16.27856 -68.80829 21348 ft 402 kts 126°
2026-04-22 20:20 -16.29507 -68.78490 21134 ft 400 kts 126°
2026-04-22 20:20 -16.31142 -68.76173 20920 ft 398 kts 126°
2026-04-22 20:21 -16.32776 -68.73858 20708 ft 398 kts 126°
2026-04-22 20:21 -16.34412 -68.71538 20505 ft 394 kts 126°
2026-04-22 20:21 -16.36025 -68.69250 20295 ft 392 kts 126°
2026-04-22 20:21 -16.37646 -68.66949 20083 ft 389 kts 126°
2026-04-22 20:22 -16.39214 -68.64725 19875 ft 381 kts 126°
2026-04-22 20:22 -16.40766 -68.62522 19541 ft 368 kts 126°
2026-04-22 20:22 -16.42232 -68.60441 19272 ft 353 kts 126°
2026-04-22 20:22 -16.43680 -68.58383 18997 ft 345 kts 126°
2026-04-22 20:23 -16.45075 -68.56400 18722 ft 334 kts 126°
2026-04-22 20:23 -16.46414 -68.54498 18466 ft 320 kts 126°
2026-04-22 20:23 -16.47706 -68.52663 18202 ft 308 kts 125°
2026-04-22 20:23 -16.48956 -68.50884 17929 ft 297 kts 125°
2026-04-22 20:24 -16.49987 -68.49095 17652 ft 283 kts 107°
2026-04-22 20:24 -16.50373 -68.47169 17364 ft 265 kts 96°
2026-04-22 20:24 -16.50518 -68.45296 17115 ft 253 kts 91°
2026-04-22 20:24 -16.50588 -68.43497 16823 ft 247 kts 90°
2026-04-22 20:25 -16.50641 -68.41740 16524 ft 241 kts 90°
2026-04-22 20:25 -16.50686 -68.40014 16226 ft 236 kts 90°
2026-04-22 20:25 -16.50728 -68.38333 15929 ft 231 kts 90°
2026-04-22 20:25 -16.50775 -68.36670 15628 ft 227 kts 90°
2026-04-22 20:26 -16.50824 -68.35049 15328 ft 223 kts 90°
2026-04-22 20:26 -16.50875 -68.33476 15069 ft 208 kts 90°
2026-04-22 20:26 -16.50920 -68.31997 14857 ft 202 kts 90°
2026-04-22 20:26 -16.50966 -68.30588 14650 ft 189 kts 90°
2026-04-22 20:27 -16.51010 -68.29244 14450 ft 183 kts 90°
2026-04-22 20:27 -16.51053 -68.27922 14229 ft 182 kts 90°
2026-04-22 20:27 -16.51092 -68.26608 14010 ft 180 kts 90°
2026-04-22 20:27 -16.51136 -68.25325 13823 ft 178 kts 90°
2026-04-22 20:28 -16.51185 -68.24029 13630 ft 179 kts 90°
2026-04-22 20:28 -16.51230 -68.22744 13447 ft 176 kts 89°
2026-04-22 20:28 -16.51267 -68.21493 13266 ft 171 kts 89°
2026-04-22 20:28 -16.51299 -68.20307 13218 ft 148 kts 92°
2026-04-22 20:29 -16.51328 -68.19443 13260 ft 86 kts 91°
2026-04-22 20:29 -16.51343 -68.18984 13281 ft 52 kts 91°
2026-04-22 20:29 -16.51352 -68.18655 13303 ft 39 kts 92°
2026-04-22 20:29 -16.51354 -68.18415 13317 ft 27 kts 80°
2026-04-22 20:30 -16.51305 -68.18251 13328 ft 20 kts 63°
2026-04-22 20:30 -16.51232 -68.18141 13337 ft 17 kts 50°
2026-04-22 20:30 -16.51156 -68.18057 13347 ft 15 kts 47°
2026-04-22 20:30 -16.51086 -68.17978 13355 ft 12 kts 47°
2026-04-22 20:31 -16.51047 -68.17934 13359 ft 5 kts 45°
2026-04-22 20:31 -16.51019 -68.17928 13361 ft 3 kts 341°
2026-04-22 20:31 -16.51001 -68.17960 13359 ft 7 kts 272°
2026-04-22 20:31 -16.50982 -68.18010 13357 ft 8 kts 341°
2026-04-22 20:32 -16.50958 -68.18012 13358 ft 0 kts